Location: Censy
(47.6967°N, 4.0422°E)
Time: 10:37:52
(UTC+00:00)

Daily predictions for brighter satellites

Satellite Brightness Start Highest point End
(mag) Time Altitude Azimuth Time Altitude Azimuth Time Altitude Azimuth
NOAA 11 4.2 17:04:33 10° SSE 17:10:02 77° ENE 17:15:34 10° NNW
AQUARIUS 4.2 17:06:22 10° SSE 17:10:52 87° ENE 17:15:24 10° NNW
NOSS 3-1 (C) 4.1 17:03:53 10° NW 17:11:16 78° NE 17:19:55 10° SE
COSMO-SKYMED 1 3.5 17:09:56 10° NE 17:13:42 28° E 17:17:28 10° SSE
BREEZE-M DEB (TANK) 1.9 17:12:21 10° WNW 17:14:45 53° N 17:17:02 10° E
Cosmos 1937 Rocket 4.2 17:11:06 10° SSE 17:15:54 36° ESE 17:20:43 10° NE
Aureole 3 2.5 17:13:56 10° N 17:17:01 66° E 17:19:58 10° SSE
Okean 1-7 Rocket 3.7 17:13:18 10° S 17:17:52 86° W 17:22:29 10° N
USA 290 3.4 17:18:21 10° N 17:20:59 23° ENE 17:23:37 10° ESE
NOSS 2-1 (C) 2.9 17:20:15 10° SSW 17:23:34 69° SE 17:27:01 10° NE
Cosmos 1833 Rocket 3.0 17:19:25 10° NNW 17:24:49 44° NE 17:30:10 10° SE
H-2A R/B 2.8 17:24:12 10° ESE 17:28:34 30° ENE 17:33:03 10° N
Meteor 1-21 Rocket 4.2 17:23:58 10° S 17:29:29 75° E 17:35:05 10° NNE
NOSS 2-1 (D) 2.8 17:26:10 10° SW 17:29:30 81° SE 17:32:59 10° NE
Cosmos 1939 Rocket 2.8 17:26:35 10° SSE 17:30:38 70° ENE 17:34:39 10° N
Cosmos 2344 4.3 17:22:02 10° NW 17:31:02 68° NE 17:43:32 10° SE
H-2A R/B 2.2 17:26:39 10° NNE 17:31:05 83° WNW 17:35:21 10° SSW
Helios 1A Rocket 4.2 17:28:03 10° ESE 17:31:09 21° ENE 17:34:16 10° NNE
USA 229 DEB 3.9 17:25:28 10° NW 17:32:46 78° NE 17:40:28 10° SE
USA 229 3.9 17:25:35 10° NW 17:32:53 77° NE 17:40:35 10° SE
Cosmos 44 3.5 17:28:41 10° SW 17:33:31 76° NW 17:38:43 10° NE
Cosmos 1602 Rocket 3.6 17:29:25 10° S 17:33:40 55° E 17:37:59 10° NNE
CZ-3B R/B 1.8 17:31:41 10° NW 17:34:07 67° NNE 17:40:46 10° ESE
SeaSat 1 3.8 17:30:16 10° NNE 17:34:46 36° NW 17:39:15 10° WSW
Cosmos 2026 Rocket 4.2 17:29:09 10° SSE 17:34:58 47° E 17:40:55 10° NNE
CSL-04 DEB 4.5 17:31:38 10° NNE 17:35:43 58° ESE 17:39:39 10° S
Feng Yun 1-1 Rocket 4.2 17:30:34 10° SSE 17:36:00 67° ENE 17:41:38 10° N
SJ 16-02 2.4 17:32:31 10° SW 17:36:44 45° WNW 17:40:59 10° N
Cosmos 2112 Rocket 4.2 17:32:21 10° NNW 17:37:36 80° WSW 17:42:47 10° SSE
YAOGAN 1 3.2 17:36:12 10° SE 17:40:03 32° ENE 17:43:55 10° N
Cosmos 990 Rocket 4.0 17:34:57 10° SSW 17:40:09 88° ESE 17:45:23 10° NNE
Cosmos 1689 Rocket 3.6 17:41:34 16° E 17:41:34 16° E 17:43:27 10° SE
Cosmos 1553 Rocket 4.5 17:35:51 10° N 17:41:49 39° ENE 17:47:40 10° SE
Cosmos 1844 Rocket 3.6 17:36:31 10° SW 17:41:59 48° NW 17:47:27 10° NNE
H-2A R/B 4.3 17:38:15 10° SSW 17:42:07 37° W 17:46:09 10° NNW
Aureole 3 Rocket 2.8 17:39:36 10° N 17:42:44 46° E 17:46:35 10° SSE
COSMOS 2406 3.2 17:38:29 10° NNW 17:44:17 68° ENE 17:50:00 10° SE
Cosmos 2082 Rocket 2.7 17:39:15 10° NNW 17:44:34 37° NE 17:49:50 10° ESE
Cosmos 1844 4.4 17:40:25 10° SW 17:45:59 54° WNW 17:51:40 10° NNE
Cosmos 1703 3.2 17:43:48 10° S 17:47:41 89° WNW 17:51:35 10° N
NOSS 3-1 (A) 4.1 17:40:59 10° NW 17:48:26 82° NE 17:57:07 10° SE
Cosmos 1825 Rocket 4.2 17:44:52 10° SSE 17:48:47 33° E 17:52:46 10° NNE
X-37B 1.6 17:46:00 10° W 17:49:04 43° S 17:51:36 14° ESE
IRS-1C Rocket 4.1 17:44:21 10° SSE 17:49:31 64° ENE 17:54:44 10° N
Cosmos 1812 Rocket 3.5 17:47:35 10° N 17:51:59 88° E 17:56:20 10° S
ISS -3.0 17:48:46 10° WNW 17:52:00 40° N 17:53:50 21° ENE
ATLAS 2AS CENTAUR R/B 4.4 17:49:00 10° WNW 17:55:11 24° N 18:00:55 11° NE
Okean O Rocket 3.1 17:51:19 10° SSW 17:55:28 40° W 17:59:39 10° NNW
ATLAS 5 CENTAUR R/B 4.0 17:54:53 10° NW 17:57:26 14° N 18:00:11 10° NNE
CZ-4 R/B 1.4 17:55:42 10° SSE 17:59:38 55° ENE 18:03:32 10° N
Iridium 4 Rocket 3.4 17:54:55 10° N 18:00:20 69° E 18:05:13 10° S
ERS-2 2.4 17:58:38 11° NNE 18:01:57 45° E 18:05:26 10° S
SKYMED 2 3.5 17:57:35 10° NNE 18:01:58 86° ESE 18:06:19 10° SSW
CSL-04 Rocket 4.1 17:59:05 10° SE 18:04:07 40° ENE 18:09:15 10° N
Okean-O 2.6 18:02:46 10° SSE 18:07:08 61° ENE 18:11:31 10° N
CZ-4C R/B 4.2 18:03:22 10° NW 18:07:50 20° N 18:11:46 13° NE
S3M 4.3 18:02:35 10° N 18:08:21 42° ENE 18:14:07 10° SE
USA 234 4.0 18:05:52 17° ENE 18:10:19 39° N 18:16:17 10° WNW
Cosmos 1428 Rocket 4.5 18:04:16 10° S 18:10:33 83° E 18:16:54 10° N
Cosmos 1340 3.2 18:07:33 10° SSW 18:11:14 58° WNW 18:14:58 10° N
Cosmos 1346 Rocket 2.8 18:07:53 10° S 18:11:44 55° E 18:15:11 13° NNE
Cosmos 2278 Rocket 2.2 18:06:28 10° SSW 18:12:04 66° ESE 18:17:11 13° NNE
Cosmos 1655 Rocket 4.5 18:06:38 10° SSE 18:12:11 36° E 18:17:47 10° NNE
Cosmos 1953 Rocket 3.9 18:11:10 10° SSE 18:15:14 40° E 18:17:58 19° NNE
CZ-2C R/B 3.5 18:10:13 10° S 18:15:41 73° WSW 18:21:28 10° NNW
SWARM A 4.3 18:14:48 10° SSE 18:18:01 48° E 18:18:52 37° NE
SAR-Lupe-4 3.5 18:17:50 23° NNE 18:19:54 60° ESE 18:23:26 10° S
Cosmos 2292 Rocket 3.9 18:15:33 10° SSE 18:19:59 38° E 18:20:40 35° ENE
Cosmos 405 3.9 18:18:45 10° NNW 18:22:11 50° W 18:25:35 10° S
Cosmos 44 Rocket 3.9 18:17:47 10° S 18:22:15 36° ESE 18:23:18 32° E
NOSS 2-1 (E) 4.3 18:21:46 10° WSW 18:24:50 34° NW 18:26:46 20° NNE
DMSP B5D1-3 4.5 18:23:37 10° NNE 18:28:40 58° E 18:33:41 10° S
ARGOS 3.1 18:23:55 10° SSE 18:29:13 67° ENE 18:34:35 10° N
TELKOM 3 4.4 18:27:10 10° WNW 18:28:35 34° WNW 18:28:35 34° WNW
Cosmos 1869 3.5 18:26:41 10° N 18:30:11 46° ENE 18:30:11 46° ENE
Meteor 2-19 Rocket 4.4 18:25:15 10° S 18:31:25 88° W 18:37:38 10° N
PSLV R/B 3.9 18:29:01 10° NNE 18:33:16 89° W 18:37:27 10° SSW
Cosmos 372 Rocket 3.9 18:30:31 10° SSW 18:35:44 87° ESE 18:39:58 16° NNE
SAR-Lupe-1 4.0 18:34:04 26° NNE 18:35:58 87° WNW 18:39:33 10° SSW
CZ-4B R/B 3.4 18:33:55 10° N 18:36:47 27° WNW 18:39:34 10° SW
Cosmos 468 4.4 18:32:26 10° NNW 18:37:41 66° ENE 18:41:13 21° SE
CZ-2C R/B 2.9 18:33:45 14° NNE 18:38:19 46° E 18:43:41 10° S
Cosmos 494 Rocket 4.1 18:36:36 10° NNW 18:41:37 50° ENE 18:42:29 45° E
MOS 1 Rocket 4.2 18:40:38 10° N 18:44:42 43° WNW 18:48:48 10° SW
Cosmos 2150 Rocket 4.0 18:39:57 10° S 18:44:58 55° ESE 18:45:58 47° ENE
Cosmos 1048 Rocket 3.8 18:41:31 10° NNW 18:46:41 77° ENE 18:49:36 26° SSE
Cosmos-2242 4.0 18:42:41 10° NNW 18:46:49 47° W 18:50:57 10° SSW
COSMO-SKYMED 1 4.3 18:46:00 10° N 18:49:53 32° WNW 18:53:45 10° SW
Cosmos 2297 4.5 18:47:34 10° S 18:51:23 33° SE 18:51:23 33° SE
SL-08 RB Rocket 3.5 18:59:18 40° SSE 19:00:55 89° WSW 19:05:26 10° NNW
CSL-04 Debris 4.4 18:57:45 10° S 19:03:06 68° WSW 19:08:30 10° NNW
Helios 1A Rocket 4.1 19:02:04 10° S 19:06:02 43° W 19:10:01 10° NNW
Cosmos 2221 4.3 19:02:09 10° N 19:03:42 21° N 19:03:42 21° N
H-2A R/B 3.2 19:03:01 10° S 19:07:49 43° W 19:12:47 10° NNW
Cosmos 1833 Rocket 4.3 19:03:37 10° NW 19:08:36 33° WSW 19:13:34 10° SSW
Cosmos 1125 Rocket 3.7 19:04:27 10° S 19:08:41 54° SSE 19:08:41 54° SSE
Cosmos 1809 Rocket 4.3 19:03:58 10° S 19:10:06 85° E 19:16:18 10° N
Cosmos 2298 Rocket 4.0 19:06:57 10° SSW 19:12:17 84° WNW 19:13:35 53° NNE
Cosmos 2266 Rocket 3.8 19:08:02 10° S 19:14:16 83° E 19:20:25 10° N
NOSS 2-2 (C) 4.3 19:14:07 10° NW 19:19:28 78° NE 19:20:07 70° ESE
In-Cosmos 22 Rocket 4.4 19:18:16 10° SSW 19:24:02 72° WNW 19:29:34 11° N
X-37B 3.7 19:23:06 10° WSW 19:23:54 14° WSW 19:23:54 14° WSW
Cosmos 1943 Rocket 4.4 19:22:51 10° S 19:23:18 12° S 19:23:18 12° S
Cosmos 2082 Rocket 3.3 19:23:22 10° NW 19:28:44 42° WSW 19:33:42 12° S
ISS -1.0 19:25:47 10° WNW 19:26:49 18° WNW 19:26:49 18° WNW
CZ-4 R/B 4.5 19:32:46 10° SW 19:34:59 14° W 19:37:12 10° WNW
MetOp-A 4.4 19:37:46 62° NW 19:37:46 62° NW 19:42:19 10° NNW
ATLAS 5 CENTAUR R/B 4.2 19:41:00 10° NNW 19:42:29 14° N 19:42:29 14° N
Cosmos 2315 Rocket 4.1 19:39:55 10° NNW 19:46:08 74° W 19:46:33 71° SW
ATLAS 2AS CENTAUR R/B 4.0 19:42:13 10° NW 19:48:21 29° NNE 19:48:21 29° NNE
USA 234 3.7 19:53:13 49° N 19:53:13 49° N 19:58:53 10° NW
Cosmos 2278 Rocket 4.0 19:51:55 10° WSW 19:56:39 26° NW 19:59:04 20° N
CZ-4C R/B 3.9 19:52:34 10° NNW 19:56:58 29° N 19:56:58 29° N
USA 281 4.4 20:04:50 30° N 20:04:50 30° N 20:08:11 10° NNW
CZ-2C R/B 4.3 20:15:10 18° NNW 20:18:24 31° WNW 20:23:16 10° WSW
